Weather Roundup
Issued by NWS Springfield, MO

Home | Current Version | Previous Version | Text Only | Print | Product List | Glossary On
Versions: 1 2 3 4 5 6 7 8 9 10 11 12 13 14 15 16 17 18 19 20 21 22 23 24 25 26 27 28 29 30 31 32 33 34 35 36 37 38 39 40 41 42 43 44 45 46 47 48 49 50
000
NZUS99 KSGF 032107
HRRSGF

HOURLY WEATHER
NATIONAL WEATHER SERVICE SPRINGFIELD MO
400 PM CDT WED JUN 03 2015

......SGF CWA......

CITY           SKY/WX    TMP DP  RH WIND       PRES   REMARKS
SPRINGFIELD    PTSUNNY   81  66  60 E6        29.96F
JOPLIN         PTSUNNY   83  69  62 S9        29.92F
WEST PLAINS    CLOUDY    71  63  75 SE5       30.03F
ROLLA          LGT RAIN  69  65  86 S7        30.00F FOG
OSAGE BEACH    CLOUDY    66  64  94 E12G17    29.93F
BRANSON        PTSUNNY   79  66  65 SE8       30.00F

......SURROUNDING SGF CWA......

CITY           SKY/WX    TMP DP  RH WIND       PRES   REMARKS
CHANUTE        PTSUNNY   83  69  62 SE17G26   29.87F
PARSONS        PTSUNNY   85  70  60 S13G21    29.88F
COFFEYVILLE    PTSUNNY   86  70  58 SE16G24   29.87F HX  90
EMPORIA        CLOUDY    82  68  62 SE10      29.88R
GROVE OK       PTSUNNY   86  68  54 SE7       29.94F
ROGERS AR      PTSUNNY   84  65  52 S5        29.98F
SILOAM SPRINGS PTSUNNY   82  64  54 CALM      29.98F
HARRISON AR    PTSUNNY   79  67  66 E5        30.00S
NEAR YELLVILLE   N/A     79  66  65 SE7       29.98S

......KANSAS AND MISSOURI......

CITY           SKY/WX    TMP DP  RH WIND       PRES   REMARKS
KANSAS CTY INT CLOUDY    70  64  81 S13       29.86F
DOWNTOWN KC    CLOUDY    72  63  73 SW8       29.91R
COLUMBIA       CLOUDY    68  66  93 SE21G28   29.88F
SEDALIA        CLOUDY    67  64  90 E10G22    29.86R
ST JOSEPH      CLOUDY    73  65  75 SW6       29.89R
ST LOUIS       CLOUDY    77  59  53 SW6       30.00F
SPIRIT OF STL  CLOUDY    74  62  66 SW3       29.99F
KIRKSVILLE     CLOUDY    70  65  84 SE10      29.92R
WICHITA        MOSUNNY   90  67  46 S24       29.81F HX  93
TOPEKA         PTSUNNY   77  68  73 SE16      29.91R THUNDER
OLATHE         CLOUDY    71  64  78 S8        29.90F

......TENNESSEE......

CITY           SKY/WX    TMP DP  RH WIND       PRES   REMARKS
MEMPHIS        PTSUNNY   77  60  55 NE12      29.99F
NASHVILLE      PTSUNNY   74  60  61 VRB7      30.00F

......ARKANSAS.......

CITY           SKY/WX    TMP DP  RH WIND       PRES   REMARKS
FAYETTEVILLE   PTSUNNY   82  65  56 S5        29.97F
FT SMITH       PTSUNNY   86  64  47 SE6       29.93F
LITTLE ROCK    CLOUDY    80  63  55 VRB5      29.99S

......OKLAHOMA.......

CITY           SKY/WX    TMP DP  RH WIND       PRES   REMARKS
TULSA          PTSUNNY   89  69  51 SE14      29.88F HX  93
PONCA CITY     SUNNY     90  68  48 S21G28    29.82F HX  94
MCALESTER      PTSUNNY   85  66  53 S6        29.93F
OKLAHOMA CITY  MOSUNNY   88  66  48 S20G28    29.88S HX  90

......IOWA............

CITY           SKY/WX    TMP DP  RH WIND       PRES   REMARKS
DES MOINES     CLOUDY    76  63  64 W8        29.90F
QUAD CITIES    MOSUNNY   78  59  51 S14       29.93F

......ILLINOIS........

CITY           SKY/WX    TMP DP  RH WIND       PRES   REMARKS
QUINCY         PTSUNNY   71  62  73 S14       29.93F
CHICAGO        PTSUNNY   75  55  49 S10       29.99F




USA.gov is the U.S. government's official web portal to all federal, state and local government web resources and services.